NOAA NWS Hourly Roundups by Site

Regional Weather Roundup for Green Bay, WI

To Select Another Site Choose from List

Select Site:  

496
ASUS43 KGRB 211511
RWRGRB

NORTH-CENTRAL AND NORTHEAST WISCONSIN REGIONAL WEATHER ROUNDUP
NATIONAL WEATHER SERVICE GREEN BAY WI
900 AM CST MON JAN 21 2019

WIZ005-009-010>012-018-019-211600-
NORTH CENTRAL WISCONSIN

CITY           SKY/WX    TMP DP  RH WIND       PRES   REMARKS
IRONWOOD       FAIR      -1  -8  72 S5        30.40F WCI -11
MANITOWISH WTR FAIR     -18 -24  73 SE5       30.37F WCI -31
ARBOR VITAE    FAIR     -10 -15  77 CALM      30.38S
EAGLE RIVER    FAIR     -17 -24  70 CALM      30.39F HAZE
LAND O LAKES   FAIR     -20 -26  74 CALM      30.40F
RHINELANDER    FAIR     -11 -18  71 E3        30.39F
PHILLIPS       FAIR      -3  -9  77 SE6       30.38S WCI -15
ANTIGO         FAIR      -8 -13  79 CALM      30.42F
TOMAHAWK       FAIR     -17 -22  78 CALM      30.40F
MERRILL        FAIR      -6 -12  74 CALM      30.43F
$$

WIZ013-073-211600-
NORTHEAST WISCONSIN

CITY           SKY/WX    TMP DP  RH WIND       PRES   REMARKS
IRON MOUNTAIN  FAIR      -5 -11  75 CALM      30.46S
MARINETTE      FAIR       4  -4  69 CALM      30.55F
OCONTO         FAIR       0  -6  77 CALM      30.55S
$$

WIZ017-030-035>037-045-211600-
CENTRAL WISCONSIN

CITY           SKY/WX    TMP DP  RH WIND       PRES   REMARKS
MEDFORD        FAIR      -2  -8  72 SE6       30.38F WCI -14
WAUSAU         FAIR      -2  -9  72 E6        30.43F WCI -14
MOSINEE        MOSUNNY   -2  -8  78 E7        30.44F WCI -16
MARSHFIELD     FAIR      -2  -8  76 SE6       30.41F WCI -14
WISC RAPIDS    FAIR      -2 -10  69 E7        30.46F WCI -15
STEVENS POINT  FAIR      -6 -10  81 CALM      30.46F
WAUPACA        FAIR      -4  -9  77 CALM      30.52S
SHAWANO        FAIR       1  -6  74 CALM      30.52F
CLINTONVILLE   FAIR       1  -6  73 CALM      30.51F
WAUTOMA        NOT AVBL
$$

WIZ038-039-048-051-211600-
FOX VALLEY

CITY           SKY/WX    TMP DP  RH WIND       PRES   REMARKS
NWS GREEN BAY  FAIR       4  -5  66 CALM      30.54S
APPLETON       SUNNY      3  -8  60 NE10      30.49S WCI -12
OSHKOSH        FAIR       1  -4  79 E3        30.51S
FOND DU LAC    FAIR      -1  -5  82 CALM      30.52S
$$

WIZ022-050-052-211600-
EAST CENTRAL WISCONSIN

CITY           SKY/WX    TMP DP  RH WIND       PRES   REMARKS
EPHRAIM        FAIR       6   1  80 CALM      30.53S
WASHINGTON ISL FAIR       0  -3  85 CALM      30.54S
STURGEON BAY   FAIR       8   2  76 N3        30.54F
MANITOWOC      FAIR       6  -2  69 NW5       30.55S WCI  -3
SHEBOYGAN      CLOUDY     5  -4  66 N3        30.53S
$$

LMZ563-521-522-541>543-211600-
LAKESHORE

STATION/POSITION TIME  TEMP    WIND        PRES    VSBY  WAVE
                       AIR SEA DIR/SP/G                  HT/PER
                 (UTC) (F)     (DEG/KT/KT) (MB)    (MI)  (FT/S)
SHEBOYGAN LKSHOR 1500    8     300/  5/  7 1035.8R
KEWAUNEE LKSHORE 1448    5     290/  3/  5 1033.1F
NORTHPORT PIER   1440   10     310/  1/  3 1034.2S
CHAMBERS ISLAND  1440    7      CALM  /  2 1033.2R
MENOMINEE LKSHOR 1448   -1 35  320/  2/  3 1033.9F
$$



 

View Past Reports for Green Bay, WI.

Products Courtesy of NOAA-NWS
NWS Information Parsing Script by Ken True at Saratoga Weather - Script by SE Lincoln Weather.